CAPE
1287 1364 1221 1517 1502 1412 1159 1150 1358 1516 1262 978 820 853 864 928 989 878 825 705 847 762 820 734 557 616 808 1350 1375 1082 938 1088 739 1130 1074 1232 1193 938 988 926 1105 628
951 1092 932 1156 1103 1333 1503 1697 1684 1424 1328 1279 955 918 937 838 821 524 707 755 1069 937 490 534 702 609 1320 1213 1232 1270 967 831 617 992 1410 1393 1317 1111 1010 682 1209 1194
915 945 1061 1228 1528 1615 1648 1549 1193 1286 1182 1125 911 710 910 801 671 610 712 691 558 462 749 986 642 875 1187 1178 1274 1002 780 917 806 1383 1350 1327 1084 1056 724 1217 948 1274
676 930 967 1072 1184 1265 1401 1413 1436 1381 1281 1118 858 886 826 775 656 736 518 522 591 579 665 990 1203 1231 1168 1172 883 1106 972 1200 1308 1399 1323 1221 1116 1039 802 611 715 1332
321 596 836 1030 1048 1084 909 870 730 951 862 720 911 1142 987 819 665 664 721 769 909 815 703 1063 747 982 1556 1212 653 532 526 1109 1190 1259 1187 1128 1066 1055 1259 1338 1397 1352
311 379 642 918 1012 953 927 708 648 952 810 896 1009 1120 988 740 611 674 863 1088 978 1022 960 946 1334 1410 887 463 594 796 865 422 952 1240 1122 1003 1074 1159 1201 1242 1181 1092
350 371 579 839 897 873 793 920 1006 852 888 989 1014 1131 1086 914 809 878 921 1115 890 950 1401 1184 1375 832 830 796 776 1163 860 1019 1105 1312 1180 1091 1189 1411 1235 984 891 902
445 431 465 604 647 726 780 731 781 654 766 951 1023 1059 1078 935 1175 1076 931 975 767 710 744 835 963 610 1336 1314 1191 952 1014 1037 1460 1379 1242 1078 1237 1223 1077 1046 1230 459
286 438 426 421 510 617 533 569 624 776 908 912 965 1023 1187 1259 1047 991 1001 940 1002 616 825 1130 564 525 701 846 894 812 913 1446 1497 1567 1601 1519 1125 1132 1045 834 758 554
4 4 3 98 128 459 535 538 516 676 729 807 920 1029 1026 1226 1212 1311 1129 1028 770 980 1064 869 661 486 507 548 605 1194 1452 1496 1451 1733 1856 1622 1476 1348 741 846 875 1081
4 3 4 4 4 10 324 570 559 579 706 676 684 840 1070 1291 1135 1222 1218 1170 1149 992 942 727 760 542 448 552 668 802 911 1213 1421 1448 1763 1372 1327 1000 785 737 965 1208
3 3 1 2 2 3 79 250 273 368 583 638 666 734 873 890 623 1090 1101 1153 914 815 868 787 845 611 595 438 463 659 1348 1153 1272 1398 1011 1288 820 966 820 806 1113 1160
2 3 2 2 3 2 3 102 163 325 356 562 664 673 744 760 799 568 1010 715 876 856 836 787 763 651 513 447 433 593 1307 1230 1346 1306 740 409 629 711 813 1251 1195 1257
1 2 2 2 3 4 5 24 94 176 355 326 486 610 588 626 671 634 929 603 746 826 899 815 704 620 560 443 471 318 1102 1374 1340 1349 1276 873 930 1019 1197 1297 1495 1401
0 0 2 1 1 3 3 4 17 104 226 342 344 472 575 586 564 604 421 414 770 1054 1076 914 801 747 662 474 449 515 783 1489 1308 1279 1324 1183 1290 1292 1292 1378 1351 1343
0 0 0 1 1 2 2 4 3 83 218 312 387 359 429 532 689 794 483 544 515 852 1039 810 820 931 694 455 444 692 862 1258 1410 1449 1409 1460 1628 1505 1333 1351 1179 1052
0 0 0 0 1 2 3 2 2 3 52 198 338 337 240 369 316 392 461 433 403 534 736 1040 1086 950 678 601 550 538 859 1239 1320 1496 1563 1478 1353 1442 1255 1278 1232 990
0 0 0 0 1 1 1 1 2 44 72 112 123 171 206 226 220 259 227 266 350 348 749 740 826 490 563 504 386 354 375 876 1009 1139 1054 1039 973 964 1001 1301 1430 1452
0 0 0 0 0 0 2 2 2 30 6 72 87 75 80 91 137 146 155 163 519 340 417 376 396 346 376 280 196 304 355 375 742 628 642 623 855 1125 600 458 617 584
1 1 0 1 1 1 1 1 1 1 1 1 1 0 1 1 21 20 57 13 10 65 220 323 333 333 276 222 255 336 374 332 620 546 593 526 594 633 452 544 591 615
0 1 1 1 1 2 1 2 2 2 1 1 0 0 1 1 37 23 22 14 3 20 41 288 333 299 191 163 282 305 276 218 190 498 628 631 786 732 758 595 797 620
0 0 2 1 2 2 1 2 1 2 2 3 2 0 1 1 27 23 9 4 6 86 3 171 259 310 206 107 213 280 247 195 476 940 932 1022 1090 1199 1044 1036 827 705
0 1 1 2 1 1 1 1 2 1 2 1 2 1 2 2 4 31 12 17 32 1 3 150 231 293 161 114 107 214 84 134 676 525 696 885 894 816 692 791 897 603
0 2 2 2 2 1 1 2 2 2 2 2 2 3 2 2 18 55 27 7 6 22 23 60 163 246 122 65 128 53 80 277 235 394 585 507 464 274 257 160 225 183
0 0 3 4 3 2 2 2 2 2 3 1 1 1 1 18 64 68 64 43 23 18 8 34 50 129 88 40 110 60 23 53 93 191 206 152 54 71 109 150 150 126
0 0 0 2 4 3 2 2 1 0 1 1 1 0 9 16 18 20 28 18 14 21 5 1 5 7 0 0 17 74 144 98 45 63 14 3 48 48 97 145 134 97
Wind_Speed
25 25 27 30 29 28 30 28 25 26 27 25 21 20 19 19 20 20 19 19 17 18 17 17 19 19 18 20 19 17 17 22 17 19 19 19 18 18 19 19 19 17
26 26 28 27 27 27 28 29 27 24 25 25 23 22 20 20 23 22 21 19 19 20 19 15 17 17 19 19 18 17 16 21 17 19 19 18 18 18 19 20 19 18
26 27 27 27 26 24 24 25 26 25 24 23 23 22 21 20 20 21 22 22 18 17 16 19 18 17 18 17 18 20 16 21 16 20 19 19 18 20 18 22 17 18
26 25 26 27 27 24 24 24 26 27 26 24 20 21 24 23 21 22 22 21 18 18 17 18 19 17 16 15 17 21 16 19 20 20 20 20 19 17 20 21 19 20
25 25 26 27 27 27 26 25 25 28 30 26 21 22 26 23 22 22 21 18 16 14 14 18 19 16 19 19 24 20 19 20 23 22 22 21 20 20 19 21 20 19
24 26 27 26 27 29 30 29 26 27 28 27 24 25 24 22 21 21 19 17 16 16 15 17 18 21 23 20 20 23 24 26 23 24 22 20 21 21 20 19 20 20
25 26 27 27 28 30 30 31 30 30 30 29 27 25 25 23 21 20 18 17 16 16 18 19 23 20 21 22 22 24 26 23 24 23 21 21 21 22 19 19 20 22
25 27 27 28 29 30 29 30 29 29 29 28 26 24 24 23 22 22 20 19 20 19 16 19 24 19 22 22 23 24 25 25 24 23 21 21 23 22 20 20 25 26
23 26 27 25 27 28 28 28 27 26 26 26 25 24 24 22 21 21 21 20 23 21 17 22 21 19 20 23 23 23 22 24 23 23 24 24 24 24 22 22 18 21
nan nan nan nan 22 23 24 24 23 23 24 26 25 24 23 22 21 21 20 22 22 21 22 23 23 23 21 20 19 23 24 24 24 25 27 27 26 27 23 19 17 18
nan nan nan nan nan nan 22 23 23 23 23 22 24 23 22 22 21 21 21 21 22 20 19 19 21 21 24 24 21 23 23 24 25 25 28 29 29 26 23 17 20 20
nan nan nan nan nan nan nan 21 21 20 19 20 20 19 20 20 19 21 23 21 20 21 20 20 24 24 25 25 23 21 25 24 23 28 27 29 27 24 21 19 23 21
nan nan nan nan nan nan nan 9 11 12 13 14 16 16 18 17 17 17 20 20 20 21 21 22 25 26 24 25 27 24 24 23 23 24 27 26 24 22 21 23 22 22
nan nan nan nan nan nan nan nan nan 5 6 8 9 11 12 15 16 18 19 20 21 22 23 23 25 27 25 24 25 24 21 23 24 24 25 27 26 25 26 25 23 22
nan nan nan nan nan nan nan nan nan 6 7 7 7 8 11 12 15 18 19 16 20 23 24 24 24 24 26 26 25 24 20 22 24 26 26 27 29 28 27 25 23 22
nan nan nan nan nan nan nan nan nan nan 9 10 9 10 11 12 15 19 18 17 18 22 22 22 21 23 25 24 22 24 22 24 26 27 28 28 29 28 26 24 22 22
nan nan nan nan nan nan nan nan nan nan nan 13 12 12 13 14 16 17 19 20 22 21 20 23 24 25 23 24 19 20 24 25 25 27 28 28 29 27 25 24 24 22
nan nan nan nan nan nan nan nan nan nan nan 18 16 14 14 16 16 17 19 21 23 22 25 26 27 39 37 26 22 27 27 26 25 25 26 26 27 28 29 27 28 27
nan nan nan nan nan nan nan nan nan nan nan nan nan nan nan nan 17 16 18 20 25 28 25 26 29 39 31 27 25 27 30 26 26 25 25 25 27 28 30 31 30 30
nan nan nan nan nan nan nan nan nan nan nan nan nan nan nan nan nan nan nan nan nan nan 28 34 36 37 37 33 27 30 31 30 25 26 26 26 26 28 32 33 32 30
nan nan nan nan nan nan nan nan nan nan nan nan nan nan nan nan nan nan nan nan nan nan nan 38 36 38 37 34 30 28 32 30 27 28 29 28 28 29 31 33 34 33
nan nan nan nan nan nan nan nan nan nan nan nan nan nan nan nan nan nan nan nan nan nan nan 37 37 40 38 38 30 27 33 32 32 32 31 31 31 32 33 36 36 34
nan nan nan nan nan nan nan nan nan nan nan nan nan nan nan nan nan nan nan nan nan nan nan 35 37 38 42 44 35 30 nan 36 40 35 34 33 33 34 36 37 38 35
nan nan nan nan nan nan nan nan nan nan nan nan nan nan nan nan nan nan nan nan nan nan nan nan 33 37 45 nan 43 nan nan 41 43 39 37 37 37 37 38 42 48 54
nan nan nan nan nan nan nan nan nan nan nan nan nan nan nan nan nan nan nan nan nan nan nan nan nan 38 nan nan 50 nan nan nan nan 42 39 38 nan nan 41 42 44 47
nan nan nan nan nan nan nan nan nan nan nan nan nan nan nan nan nan nan nan nan nan nan nan nan nan nan nan nan nan nan 51 nan nan nan nan nan nan nan nan 43 43 nan
Wind_Direction
266 270 275 285 291 292 289 289 282 281 283 282 277 274 267 259 260 262 262 258 257 256 250 249 259 260 264 265 270 268 266 256 256 266 268 271 270 277 276 281 278 277
271 272 276 279 286 290 287 285 283 278 279 280 274 264 261 264 263 264 258 256 256 255 249 246 254 263 264 266 271 271 257 265 261 257 268 276 274 278 276 284 286 283
270 274 277 284 284 284 280 277 278 278 276 275 274 272 269 273 279 275 258 248 246 252 255 251 251 258 264 272 270 253 240 259 261 265 268 276 275 275 271 275 277 289
262 264 275 277 276 276 274 269 269 272 272 269 270 271 270 275 286 280 268 259 249 241 244 251 253 259 267 273 269 255 253 259 261 266 269 268 273 273 278 281 288 284
265 261 265 274 277 276 271 265 258 259 263 264 263 263 264 268 279 280 269 261 263 264 257 254 257 260 258 244 249 254 252 256 261 263 267 268 268 269 271 277 283 285
267 266 264 268 273 275 275 270 262 256 258 261 259 256 258 263 273 282 277 267 266 263 260 258 259 253 250 251 250 246 250 246 256 263 265 267 268 272 272 280 279 287
264 266 266 266 268 272 270 267 262 253 250 253 254 251 251 254 267 281 278 266 266 261 251 247 249 249 254 254 258 259 255 258 258 260 261 263 265 270 276 277 285 283
265 265 264 267 268 268 262 257 255 249 243 246 249 246 248 251 262 272 272 264 254 251 250 254 250 245 238 248 254 246 253 254 256 261 262 265 267 270 274 271 273 274
269 267 264 260 264 265 258 250 243 238 237 240 246 248 250 251 257 266 270 265 255 250 249 253 254 242 247 238 239 260 260 257 257 261 264 265 269 269 266 264 267 281
nan nan nan nan 266 254 245 242 235 233 237 240 241 243 246 253 254 258 265 267 259 256 253 252 253 254 248 255 260 262 262 263 261 263 264 266 267 268 265 258 266 267
nan nan nan nan nan nan 224 228 230 234 238 237 240 242 243 246 252 255 258 267 269 265 262 258 253 250 251 253 248 248 261 262 262 264 264 264 265 265 259 257 271 273
nan nan nan nan nan nan nan 216 225 232 233 233 233 240 243 245 248 250 254 261 267 266 261 255 249 244 245 250 250 255 258 261 263 264 260 259 260 256 257 264 267 272
nan nan nan nan nan nan nan 219 216 224 228 229 238 244 243 239 247 246 253 258 262 264 263 259 253 250 249 249 246 239 257 263 264 266 269 257 257 258 263 267 268 268
nan nan nan nan nan nan nan nan nan 237 237 244 246 249 255 254 247 249 255 260 261 261 262 260 258 255 252 254 254 247 246 261 261 257 256 263 262 263 264 265 265 263
nan nan nan nan nan nan nan nan nan 282 288 281 278 281 275 272 266 260 257 266 269 265 263 263 262 260 254 253 255 255 255 261 260 257 253 251 256 260 262 263 263 263
nan nan nan nan nan nan nan nan nan nan 283 282 279 278 277 278 271 266 269 264 261 267 268 263 262 256 255 266 256 258 262 260 258 256 257 256 259 261 261 261 264 263
nan nan nan nan nan nan nan nan nan nan nan 262 271 274 277 277 276 274 273 273 263 253 260 259 254 257 272 278 272 256 257 258 258 258 258 260 260 258 257 262 263 263
nan nan nan nan nan nan nan nan nan nan nan 257 254 256 265 273 280 289 287 279 276 275 264 254 248 249 255 250 248 258 255 254 257 257 258 258 257 254 247 255 264 260
nan nan nan nan nan nan nan nan nan nan nan nan nan nan nan nan 275 285 290 288 284 281 268 255 247 244 254 263 259 255 257 253 257 258 259 258 256 251 252 255 259 260
nan nan nan nan nan nan nan nan nan nan nan nan nan nan nan nan nan nan nan nan nan nan 276 263 254 241 236 233 239 252 257 253 256 258 257 258 257 254 251 254 258 261
nan nan nan nan nan nan nan nan nan nan nan nan nan nan nan nan nan nan nan nan nan nan nan 258 252 237 237 238 232 242 255 251 254 255 254 253 253 252 253 255 256 257
nan nan nan nan nan nan nan nan nan nan nan nan nan nan nan nan nan nan nan nan nan nan nan 255 252 237 239 238 238 246 261 258 259 258 255 253 254 253 252 254 256 256
nan nan nan nan nan nan nan nan nan nan nan nan nan nan nan nan nan nan nan nan nan nan nan 252 249 238 239 237 232 234 nan 254 256 255 253 251 252 252 250 252 252 251
nan nan nan nan nan nan nan nan nan nan nan nan nan nan nan nan nan nan nan nan nan nan nan nan 248 242 241 nan 232 nan nan 241 250 253 252 250 251 249 247 244 237 230
nan nan nan nan nan nan nan nan nan nan nan nan nan nan nan nan nan nan nan nan nan nan nan nan nan 238 nan nan 231 nan nan nan nan 246 250 249 nan nan 247 246 240 237
nan nan nan nan nan nan nan nan nan nan nan nan nan nan nan nan nan nan nan nan nan nan nan nan nan nan nan nan nan nan 218 nan nan nan nan nan nan nan nan 246 243 nan